This is the latest recevied weather packets stored in our database for station/object N5RPG. If no packets are shown the sender has not sent any weather packets the latest 1 day(s).
| Time | Temp. | Humidity | Pressure | Rain* | Wind** | Luminosity | Snow |
|---|---|---|---|---|---|---|---|
| 1777987660 | 21.11° C | 86% | 1008.6 hPa | 0 mm | 2.68 m/s, 248° | 31 W/m² | - |
| 1777987357 | 21.11° C | 86% | 1008.6 hPa | 0 mm | 2.24 m/s, 129° | 37 W/m² | - |
| 1777987055 | 21.11° C | 86% | 1008.1 hPa | 0 mm | 0.89 m/s, 245° | 43 W/m² | - |
| 1777986752 | 21.11° C | 86% | 1008.5 hPa | 0 mm | 0.89 m/s, 201° | 36 W/m² | - |
| 1777986450 | 21.11° C | 86% | 1008.4 hPa | 0 mm | 1.34 m/s, 254° | 27 W/m² | - |
| 1777986148 | 21.11° C | 86% | 1008.6 hPa | 0 mm | 1.34 m/s, 174° | 13 W/m² | - |
| 1777985844 | 21.11° C | 86% | 1008.6 hPa | 0 mm | 0.45 m/s, 206° | 13 W/m² | - |
| 1777985542 | 21.11° C | 87% | 1008.6 hPa | 0 mm | 0 m/s | 25 W/m² | - |
| 1777985238 | 20.56° C | 87% | 1008.3 hPa | 0 mm | 0 m/s | 25 W/m² | - |
| 1777984935 | 20.56° C | 87% | 1008.2 hPa | 0 mm | 0.89 m/s, 111° | 8 W/m² | - |
| 1777984631 | 20.56° C | 87% | 1008.2 hPa | 0 mm | 0.89 m/s, 190° | 19 W/m² | - |
| 1777984328 | 20.56° C | 87% | 1008.3 hPa | 0 mm | 1.79 m/s, 220° | 15 W/m² | - |
| 1777984025 | 20.56° C | 87% | 1008.4 hPa | 0 mm | 0 m/s | 12 W/m² | - |
| 1777983722 | 20.56° C | 87% | 1008.3 hPa | 0 mm | 0.89 m/s, 77° | 13 W/m² | - |
| 1777983418 | 20.56° C | 87% | 1008.3 hPa | 0 mm | 1.79 m/s, 231° | 12 W/m² | - |
| 1777983114 | 20.56° C | 87% | 1008.1 hPa | 0 mm | 1.34 m/s, 186° | 9 W/m² | - |
| 1777982811 | 20.56° C | 87% | 1008.3 hPa | 0 mm | 1.79 m/s, 178° | 8 W/m² | - |
| 1777982507 | 20.56° C | 87% | 1008.3 hPa | 0 mm | 0.89 m/s, 352° | 3 W/m² | - |
| 1777982201 | 20° C | 87% | 1008.1 hPa | 0 mm | 0.89 m/s, 121° | 6 W/m² | - |
| 1777981899 | 20° C | 87% | 1008.1 hPa | 0 mm | 1.34 m/s, 174° | 5 W/m² | - |
| 1777981596 | 20° C | 87% | 1008 hPa | 0 mm | 0.45 m/s, 300° | 3 W/m² | - |
| 1777981292 | 20° C | 87% | 1008.1 hPa | 0 mm | 0.45 m/s, 121° | 2 W/m² | - |
| 1777980989 | 20° C | 87% | 1008.2 hPa | 0 mm | 2.68 m/s, 263° | 1 W/m² | - |
| 1777980685 | 20° C | 87% | 1008.2 hPa | 0 mm | 0.89 m/s, 193° | 1 W/m² | - |
| 1777980381 | 20° C | 87% | 1008.2 hPa | 0 mm | 0.45 m/s, 205° | 0 W/m² | - |
* Rain latest hour (hover to see other rain measurements)
** Current wind speed in m/s (hover to see current wind gust speed)